Voltar ao catálogo

STARLINK-35436

AtivoComunicaçõesVLEO
NORAD 65932·PAYLOAD·🇺🇸 United States

Lançado Oct 8, 2025 de Vandenberg Space Force Base

Loading…

Próximas Passagens (próximas 24 horas)

TLE

AtualizadoSource: CelesTrak SupGP

Época: Sep 15, 2026, 02:57 UTC

1 65932C 25225Y   26258.12340278  .00065716  00000+0  19413-2 0  2583
2 65932  53.1596   4.8710 0001111  95.4552 279.4236 15.34362134    16

Acompanhe STARLINK-35436 em tempo real com AllMySat

Download on the App Store